Flag for U.S.A. Weather past 2 weeks in Stockton, California, U.S.A.

Now
72 °F

Clear.


Feels Like: 77 °F
Forecast: 65 / 99 °F
Wind: 6 mph from Northwest

Location: Stockton Metropolitan Airport

Current Time: Aug 2, 2014 at 2:37:46 AM

Latest Report: Aug 2, 2014 at 1:55 AM


Visibility: 10 mi

Pressure: 29.82 "Hg

Humidity: 52%

Dew point: 53 °F

Location of StocktonLocation

Historic Weather in Stockton — Graph

°F

Stockton temperature yesterday

Maximum temperature yesterday: 104 °F (at 3:55 PM)
Minimum temperature yesterday: 66 °F (at 5:55 AM)
Average temperature yesterday: 85 °F

Past Weeks' High & Low Weather Summary

 TemperatureHumidityPressure
High104 °F (Aug 1, 3:55 PM)90% (Jul 18, 4:55 AM)30.13 "Hg (Jul 18, 4:55 AM)
Low60 °F (Jul 18, 4:55 AM)8% (Jul 25, 4:55 PM)29.76 "Hg (Jul 25, 6:55 PM)
Average79 °F47%29.91 "Hg
* Reported Jul 18 12:55 AM — Aug 2 12:55 AM, Stockton, Weather by CustomWeather, © 2014

Note: Actual official high and low records may vary slightly from our data, if they occured in-between our weather recording intervals... More about our weather records

Advertising

Stockton weather history for previous 24 hours

 ConditionsComfort  
Time TempWeatherWind HumidityBarometerVisibility
12:55 AM
Aug 2
74 °FClear.8 mph50%29.83 "Hg10 mi
11:55 PM
Aug 1
77 °FClear.6 mph44%29.83 "Hg10 mi
10:55 PM79 °FClear.6 mph38%29.82 "Hg10 mi
9:55 PM83 °FClear.10 mph33%29.81 "Hg10 mi
8:55 PM89 °FSunny.14 mph21%29.79 "Hg10 mi
7:55 PM92 °FSunny.15 mph23%29.78 "Hg10 mi
6:55 PM98 °FSunny.16 mph15%29.77 "Hg10 mi
5:55 PM103 °FSunny.18 mph11%29.77 "Hg10 mi
4:55 PM104 °FSunny.15 mph8%29.78 "Hg10 mi
3:55 PM104 °FSunny.13 mph8%29.80 "Hg10 mi
2:55 PM103 °FSunny.15 mph10%29.81 "Hg10 mi
1:55 PM101 °FSunny.13 mph14%29.83 "Hg10 mi
12:55 PM97 °FSunny.9 mph19%29.84 "Hg10 mi
11:55 AM94 °FSunny.8 mph21%29.85 "Hg10 mi
10:55 AM90 °FSunny.12 mph24%29.85 "Hg10 mi
9:55 AM86 °FSunny.6 mph30%29.85 "Hg10 mi
8:55 AM81 °FSunny.5 mph35%29.85 "Hg10 mi
7:55 AM75 °FSunny.7 mph48%29.84 "Hg10 mi
6:55 AM67 °FClear.No wind68%29.83 "Hg10 mi
5:55 AM66 °FClear.No wind68%29.83 "Hg10 mi
4:55 AM68 °FClear.No wind59%29.82 "Hg10 mi
3:55 AM69 °FClear.No wind59%29.82 "Hg10 mi
2:55 AM69 °FClear.3 mph55%29.83 "Hg10 mi
Weather by CustomWeather, © 2014

See weather overviewHow to use our weather pages